ATLAS 5 CENTAUR R/B (53356 NORAD) Tracking and Keplerian Element Data

This shows tracking and keplerian element data for the satellite.

Feedback or suggestion? Click here.




ElementValue
Catalog53356
NameATLAS 5 CENTAUR R/B
Epoch Orbit50
Epoch Day241.74400997
Epoch Year2022
RAAN310.3529
Inclination16.4266
Eccentricity0.565866
Argument of Perigee182.2746
Mean Anonmoly173.1858
Mean Motion1.9952476
Decay Rate-2.8E-07
L11 53356U 22092B 22241.74400997 -.00000028 00000+0 00000+0 0 9997
L22 53356 16.4266 310.3529 5658660 182.2746 173.1858 1.99524760 509



Live tracking and technical data element details for ATLAS 5 CENTAUR R/B (NORAD 53356). ATLAS 5 CENTAUR R/B can be tracked NOW for your location showing map with azimuth and elevation plus other details from your city location.







IsCatalogInMostPopularTable: catalog: 53356, numindb: 7
Update: records affected: 1



GetName: 53356 ATLAS 5 CENTAUR R/B

Hit Count: updated at: Thu, 08 Dec 2022 18:35:55 GMT